Temperature
32 32 31 31 32 31 31 31 31 32 34 33 31 31 31 31 31 30 29 28 28 26 26 25 24 23 22 21 21 21 21 21 20 20 20 20 20 20 19 19 19 19 19 19
32 31 32 33 33 32 32 31 31 32 33 33 31 31 30 31 31 30 29 29 27 26 26 25 24 23 22 22 21 21 21 21 20 20 20 20 20 20 19 19 19 19 19 19
31 31 33 33 33 32 32 32 32 32 32 32 31 30 30 31 31 30 29 29 28 27 26 25 24 24 23 22 21 21 21 21 20 20 20 20 20 20 19 19 19 19 19 19
32 33 33 33 32 32 32 33 33 33 32 31 31 28 29 29 30 31 30 29 28 27 26 25 24 24 23 22 21 21 21 21 20 20 20 20 19 19 19 19 19 19 19 19
32 33 33 32 33 33 32 33 33 33 32 31 31 30 29 29 29 30 30 29 28 27 26 25 24 23 23 22 22 21 21 21 20 20 20 19 19 19 19 19 19 19 18 19
33 34 34 33 34 34 33 33 33 32 31 29 31 30 28 29 29 30 30 29 28 27 26 25 24 24 23 22 22 21 21 20 20 20 20 19 19 19 19 19 19 18 18 19
32 33 34 34 33 33 33 32 30 29 29 29 31 31 29 31 31 31 30 29 28 27 26 25 24 24 23 22 22 21 21 20 20 20 19 19 19 19 19 19 18 18 18 19
31 31 33 34 33 32 32 32 29 28 28 29 30 30 30 31 32 31 30 29 28 27 26 25 24 24 23 22 22 21 21 20 20 19 19 19 19 19 18 18 18 18 18 18
31 31 34 34 34 33 32 32 32 31 30 30 31 30 30 31 31 31 30 29 28 27 26 25 25 24 23 22 21 21 20 20 20 19 19 19 19 18 18 18 18 18 18 18
33 32 33 34 34 34 33 33 32 30 29 29 30 29 29 29 30 31 30 29 28 27 26 25 25 24 23 22 21 21 20 20 19 19 19 19 19 18 18 18 18 18 18 18
33 32 32 33 33 32 33 32 32 31 30 29 28 29 31 30 30 31 30 29 28 27 26 25 25 24 23 22 21 20 20 19 19 19 19 18 18 18 18 18 18 18 17 17
33 32 31 33 34 34 33 33 33 31 30 30 29 29 32 31 31 30 30 28 27 27 26 25 24 23 22 21 21 20 20 19 19 19 18 18 18 17 17 17 17 17 17 17
32 31 30 31 32 33 33 33 33 32 31 30 30 29 31 31 30 29 29 28 27 26 25 25 24 23 22 21 20 20 19 19 18 18 18 18 17 17 17 17 17 17 17 17
31 30 30 29 30 32 32 32 32 32 30 30 30 30 30 30 30 29 28 27 26 25 25 24 23 22 21 20 20 19 19 19 18 18 18 17 17 17 17 17 16 17 16 16
31 30 30 31 31 32 32 32 32 31 31 30 30 30 30 30 30 29 28 27 26 25 24 23 23 22 21 20 19 19 19 18 18 18 17 17 17 17 16 16 16 16 16 16
30 29 29 30 31 32 32 32 32 32 32 32 31 30 30 30 29 28 27 26 25 24 24 23 22 21 20 20 19 19 18 18 18 17 17 17 17 16 16 16 16 16 16 16
29 28 28 28 30 30 30 31 32 31 32 31 30 30 30 29 28 27 27 26 25 24 23 22 22 21 20 20 19 19 18 18 17 17 17 16 16 16 16 16 16 16 16 15
28 28 28 28 28 27 30 32 32 31 31 31 30 30 30 29 28 27 26 25 24 23 23 22 21 21 20 19 19 18 18 17 17 17 16 16 16 16 16 16 15 15 15 15
29 28 27 27 27 28 30 31 31 30 30 30 30 29 29 28 27 26 25 24 24 23 22 21 21 21 20 19 19 18 18 17 17 16 16 16 16 16 15 15 15 15 15 15
29 28 27 27 26 27 28 30 31 30 28 29 29 28 28 27 26 25 24 23 23 22 21 21 21 20 19 19 18 18 17 17 16 16 16 16 16 15 15 15 15 15 14 14
27 27 27 26 26 27 28 30 30 27 26 27 27 27 26 25 25 24 23 22 22 21 21 20 20 20 19 18 18 17 17 16 16 16 15 15 15 15 15 15 14 14 14 14
26 26 26 26 26 26 27 28 27 26 26 26 26 25 24 23 23 22 22 21 21 20 20 20 19 19 18 18 17 17 16 16 16 15 15 15 15 15 15 14 14 14 14 14
26 26 26 25 25 25 25 25 25 25 25 24 24 24 23 23 22 21 21 21 20 20 19 19 18 18 18 17 17 16 16 16 15 15 15 15 14 14 14 14 14 14 14 14
26 26 25 24 25 25 24 24 24 24 24 24 23 23 23 22 21 20 20 20 19 19 18 18 17 17 17 17 16 16 16 15 15 15 14 14 14 14 14 14 14 13 13 13
24 25 24 23 24 24 23 23 23 23 23 23 22 22 22 21 20 20 19 18 18 18 17 17 17 16 16 16 16 15 15 15 14 14 14 14 14 14 14 14 13 13 13 13
24 24 23 23 23 23 22 22 22 22 22 21 21 21 21 20 19 19 18 17 17 17 16 16 16 16 15 15 15 15 15 14 14 13 13 13 13 13 13 13 13 13 13 13
Wind_Speed
12 10 8 9 9 8 7 7 7 5 2 2 3 5 7 7 7 7 8 9 9 8 9 9 8 9 9 8 7 5 5 4 2 2 1 2 2 2 2 3 4 3 3 3
11 12 11 11 9 9 8 8 7 5 4 3 2 2 3 6 7 7 7 7 8 8 8 9 8 8 8 8 7 6 5 4 3 2 1 2 2 1 2 3 4 3 3 2
12 8 9 10 10 10 9 8 7 5 5 6 4 5 3 4 6 8 8 8 9 9 8 9 9 8 8 8 7 6 5 4 3 2 2 2 2 1 2 3 3 3 2 3
12 11 10 10 9 9 9 8 8 8 8 7 6 4 4 6 7 8 8 8 8 9 9 9 9 8 8 8 8 7 5 4 3 2 1 1 1 2 2 2 3 2 1 2
12 10 11 11 10 9 9 8 9 10 10 8 8 5 4 7 7 8 8 8 8 8 9 9 9 9 8 8 9 8 6 5 4 2 1 1 1 1 1 2 2 2 2 2
15 12 11 10 10 9 9 9 10 9 8 9 9 6 4 6 9 9 9 9 9 9 9 9 8 10 8 8 8 8 7 5 4 3 2 2 2 2 1 1 1 1 1 1
16 14 12 11 11 10 10 9 5 5 5 8 8 4 3 7 8 8 10 10 10 10 11 10 9 10 9 8 7 8 8 6 5 4 3 2 1 1 1 0 0 0 1 1
12 11 12 11 11 10 10 9 7 6 6 6 4 2 3 6 8 8 9 10 10 10 10 10 9 9 8 8 8 8 7 6 5 4 3 2 2 1 1 0 0 1 1 2
10 10 10 11 11 11 11 9 9 9 11 7 3 4 5 6 7 9 9 10 10 9 10 9 9 9 9 8 7 7 7 6 5 4 3 3 1 0 1 1 1 1 1 1
12 10 9 10 10 12 11 11 8 7 6 7 4 2 3 6 7 8 9 10 9 9 9 9 8 8 8 8 8 7 7 6 5 4 3 3 2 1 1 1 2 3 3 3
13 12 11 10 12 12 11 12 10 6 7 7 5 1 5 7 5 7 9 10 10 10 9 8 7 8 8 8 8 7 6 5 4 4 3 2 3 2 1 1 1 2 2 2
9 10 11 12 10 10 11 12 11 8 7 7 7 2 3 5 6 5 8 9 9 10 9 9 9 8 7 7 7 6 5 5 4 4 3 3 2 2 2 2 2 2 1 1
5 7 9 11 9 9 10 11 11 10 8 8 8 2 3 4 4 5 8 10 9 9 9 9 9 8 7 6 5 5 4 4 4 4 3 3 2 2 2 1 1 1 1 1
5 9 11 12 10 8 9 11 11 11 8 9 8 3 4 4 5 6 8 9 9 8 7 7 8 7 7 5 5 4 3 4 4 4 4 3 2 1 1 1 1 1 1 0
7 11 13 14 15 14 12 12 11 12 11 11 9 5 5 3 6 7 7 7 9 9 8 8 7 7 6 6 4 4 3 3 3 3 3 3 3 2 1 1 1 1 0 1
7 10 12 15 16 16 15 14 13 13 12 11 7 4 0 4 7 6 7 7 7 7 7 7 7 7 6 6 5 4 4 3 3 3 2 2 2 2 1 1 1 1 1 1
8 9 11 13 14 16 16 12 11 10 8 8 7 3 2 4 5 5 6 6 5 7 6 6 5 6 6 5 5 4 4 4 3 3 2 2 2 1 1 1 1 1 1 2
11 9 8 12 14 16 10 8 8 8 7 6 2 1 1 3 4 5 6 5 4 5 6 5 5 5 6 6 5 4 4 4 3 3 2 2 2 1 1 1 1 2 2 2
12 9 9 10 13 13 11 8 7 8 5 4 3 1 1 3 3 3 4 5 5 5 5 5 4 4 4 5 5 4 3 3 3 2 2 2 1 1 1 1 1 1 2 2
13 10 10 11 13 13 7 6 5 6 4 4 4 3 2 1 2 1 4 5 5 4 4 4 4 4 4 4 4 4 3 3 2 2 2 2 2 2 2 1 1 2 2 2
12 12 13 14 14 10 6 5 4 5 1 5 4 4 4 3 3 3 4 5 5 4 4 4 4 4 3 3 3 3 3 2 1 1 1 1 1 1 1 1 2 2 2 3
11 11 11 11 13 8 5 4 2 3 5 5 5 5 5 5 5 5 5 5 5 4 4 4 4 4 3 3 2 2 2 1 1 1 0 0 1 2 2 1 2 2 2 3
8 6 5 5 3 2 4 4 4 4 4 4 4 4 4 4 4 4 4 4 4 4 4 3 4 4 3 3 2 2 2 2 1 0 0 1 1 2 2 2 2 2 2 3
5 3 3 2 2 1 3 4 5 5 4 3 3 2 2 2 3 4 5 5 4 4 4 3 3 3 3 3 2 2 2 1 1 0 0 1 2 2 2 2 2 2 2 3
6 4 3 3 2 1 2 3 4 4 5 4 4 3 3 2 3 4 4 4 4 4 3 3 3 3 2 2 2 2 2 1 0 1 1 2 1 1 2 2 2 2 1 2
7 5 4 3 1 1 2 4 4 4 3 3 3 3 4 3 3 5 4 4 4 3 3 3 3 2 2 2 2 2 2 1 0 1 1 1 2 1 2 1 2 2 1 1
Wind_Direction
244 245 247 252 252 258 260 270 280 271 234 223 211 173 177 184 183 170 165 158 155 151 149 145 142 133 125 119 113 106 105 100 91 81 87 87 84 79 95 98 91 81 62 57
241 244 252 260 265 262 266 271 275 275 291 300 300 183 187 208 184 179 175 157 147 145 143 142 141 135 130 124 124 123 120 118 112 99 88 90 90 83 90 77 88 83 67 56
241 246 254 258 264 269 267 272 285 280 271 257 251 259 230 215 177 177 169 161 158 160 158 156 153 145 139 133 132 127 118 119 126 130 121 102 106 89 78 93 93 73 62 66
244 243 246 255 258 265 271 273 276 278 269 264 253 253 213 218 206 182 170 164 160 157 163 163 153 147 141 135 128 116 123 122 117 112 98 130 125 99 85 95 100 105 100 92
247 245 247 251 254 257 268 282 279 280 276 266 253 249 205 196 197 186 171 160 157 156 158 154 154 148 146 142 138 133 130 123 117 118 96 86 81 102 97 102 114 119 107 102
257 247 243 253 261 260 267 271 271 276 274 269 262 253 210 193 186 180 169 161 155 152 146 141 146 145 145 144 142 141 135 132 129 121 95 74 63 67 76 86 109 119 114 111
245 239 233 237 249 250 249 259 275 276 261 256 259 256 173 171 155 160 160 157 155 151 144 144 144 143 144 142 141 138 137 140 147 143 128 115 97 110 157 129 103 130 98 69
244 236 229 227 235 252 250 252 253 264 267 264 247 210 152 142 134 139 145 147 147 146 143 144 146 145 144 142 137 134 137 139 144 147 145 147 172 207 222 258 6 10 38 68
254 246 228 221 225 240 252 254 261 265 272 278 239 158 141 140 139 141 142 141 144 144 145 147 150 147 146 144 137 135 135 139 146 147 141 149 160 348 33 22 8 47 43 80
257 266 242 220 218 231 248 264 269 266 283 283 271 205 165 167 169 160 152 150 151 151 148 147 147 147 145 143 137 137 135 140 146 144 156 156 139 126 106 51 29 37 31 29
255 261 258 240 220 228 229 240 250 260 269 284 292 292 155 169 169 164 154 152 157 154 151 149 147 143 142 140 137 134 134 138 146 146 147 134 141 147 132 101 74 66 47 23
251 260 260 255 242 235 242 248 250 250 252 266 273 248 136 137 142 148 144 136 142 147 150 147 143 140 139 139 137 136 141 144 143 135 137 134 132 121 101 87 83 84 71 21
288 267 259 256 247 234 239 257 267 267 262 258 265 192 134 114 122 137 144 137 139 145 145 143 139 141 136 131 130 136 145 144 141 132 128 119 116 111 103 88 72 66 57 7
277 265 266 265 270 266 246 254 257 264 266 268 267 215 176 168 159 146 131 139 149 143 139 143 141 139 131 127 125 132 149 141 137 132 133 124 114 106 115 103 86 64 46 342
254 260 268 273 273 270 263 255 248 252 260 268 276 260 209 184 151 138 134 140 146 148 149 147 147 142 139 137 137 142 139 127 122 127 136 133 129 129 126 135 160 169 181 275
258 277 278 274 272 274 268 262 259 260 260 262 265 278 86 108 115 131 138 143 151 150 151 147 149 144 146 151 151 147 145 136 130 137 149 136 141 151 161 179 186 190 209 257
259 264 273 272 273 272 261 261 262 268 275 274 276 260 194 136 132 138 137 145 154 149 143 144 154 157 154 154 154 161 157 154 156 158 156 154 155 169 200 245 239 237 237 240
247 259 263 267 271 265 269 281 276 279 289 294 285 261 251 138 136 134 126 130 139 144 146 145 153 154 160 161 164 161 159 154 155 165 174 182 187 194 205 255 273 272 271 266
239 243 257 266 262 261 264 273 274 272 277 313 329 356 43 105 114 135 114 112 121 128 140 147 155 150 146 152 157 154 153 155 163 173 179 179 185 193 219 264 278 283 278 265
234 226 239 256 263 264 268 283 297 273 254 10 32 29 24 121 214 131 92 99 112 127 136 146 149 141 133 143 145 148 155 157 170 183 197 192 194 210 227 252 279 284 279 280
232 228 234 249 259 263 298 315 303 266 312 24 36 40 38 41 47 95 93 103 117 122 120 125 122 115 112 109 131 151 153 168 180 181 198 189 191 222 228 232 247 264 279 276
241 235 236 248 253 254 344 334 347 45 37 36 40 50 65 75 86 88 90 90 101 105 107 107 102 100 97 102 118 131 137 134 111 132 172 192 228 260 256 239 249 258 274 275
244 250 245 244 245 27 7 23 50 41 33 38 39 39 68 89 94 87 98 98 96 93 88 91 92 97 97 89 79 103 96 89 92 113 209 249 251 257 250 246 245 250 259 271
265 285 272 275 189 118 47 24 30 31 35 39 43 27 51 96 104 96 96 93 91 90 90 90 96 93 96 96 85 81 89 98 113 120 261 267 250 251 252 250 242 254 268 279
297 292 276 249 237 282 15 5 19 28 34 28 23 28 36 65 95 101 102 92 84 85 82 89 93 87 85 93 94 91 83 81 139 209 260 273 275 281 265 262 265 260 279 261
284 286 270 269 292 289 37 21 16 31 36 22 25 33 42 49 78 101 98 91 86 81 72 71 76 72 61 72 93 106 103 101 6 277 293 291 279 285 290 288 319 333 293 302
Height
1478 1480 1483 1480 1475 1476 1477 1480 1481 1473 1465 1469 1474 1476 1476 1478 1481 1484 1487 1491 1495 1499 1502 1505 1507 1509 1510 1510 1511 1511 1512 1513 1513 1514 1515 1515 1516 1516 1517 1517 1517 1517 1517 1518
1478 1480 1474 1469 1469 1471 1473 1478 1478 1471 1464 1468 1475 1476 1476 1477 1479 1483 1486 1489 1494 1498 1501 1504 1506 1508 1509 1510 1511 1512 1512 1513 1514 1514 1515 1516 1516 1517 1518 1518 1518 1518 1518 1519
1478 1475 1469 1469 1471 1472 1473 1475 1474 1474 1469 1467 1475 1482 1477 1475 1478 1481 1484 1487 1492 1496 1499 1502 1505 1507 1509 1510 1510 1512 1512 1513 1514 1515 1516 1517 1517 1518 1518 1519 1519 1519 1519 1519
1471 1467 1468 1469 1471 1471 1476 1466 1466 1468 1474 1479 1475 1496 1485 1478 1478 1479 1482 1485 1490 1493 1497 1500 1503 1505 1508 1509 1510 1511 1512 1513 1514 1515 1516 1517 1518 1518 1519 1519 1519 1519 1519 1519
1469 1465 1467 1469 1467 1466 1469 1462 1464 1466 1471 1477 1474 1485 1486 1477 1480 1478 1480 1483 1487 1491 1495 1498 1501 1504 1506 1509 1510 1511 1512 1513 1514 1515 1516 1517 1518 1518 1519 1519 1519 1520 1520 1520
1464 1460 1461 1462 1461 1461 1461 1463 1465 1466 1473 1492 1478 1482 1489 1477 1475 1474 1477 1482 1486 1489 1494 1498 1501 1503 1506 1508 1509 1510 1511 1513 1514 1515 1516 1517 1517 1518 1518 1519 1519 1519 1519 1519
1467 1460 1457 1458 1463 1462 1463 1474 1490 1497 1497 1495 1472 1476 1481 1467 1465 1470 1475 1480 1485 1489 1493 1497 1500 1503 1506 1507 1509 1510 1511 1512 1513 1514 1515 1516 1517 1518 1518 1519 1519 1519 1519 1518
1473 1471 1457 1455 1460 1466 1464 1471 1495 1508 1504 1489 1475 1481 1472 1463 1464 1469 1473 1478 1483 1488 1492 1496 1499 1502 1505 1507 1508 1509 1510 1512 1513 1514 1515 1516 1516 1517 1518 1518 1519 1518 1518 1518
1469 1467 1451 1450 1452 1458 1465 1466 1463 1478 1480 1486 1478 1473 1469 1462 1465 1468 1473 1478 1483 1487 1491 1495 1499 1501 1504 1506 1507 1509 1509 1511 1512 1513 1514 1515 1516 1516 1517 1517 1517 1517 1517 1517
1456 1464 1451 1448 1451 1454 1456 1458 1465 1477 1493 1497 1486 1482 1480 1472 1468 1468 1472 1477 1482 1486 1491 1494 1497 1500 1503 1505 1506 1508 1509 1510 1511 1512 1513 1514 1515 1515 1516 1516 1516 1516 1515 1515
1451 1461 1457 1450 1454 1458 1458 1461 1463 1468 1475 1490 1498 1488 1463 1466 1465 1467 1471 1476 1480 1485 1489 1493 1496 1499 1502 1504 1506 1507 1508 1509 1510 1511 1512 1513 1514 1514 1514 1515 1515 1514 1514 1514
1451 1457 1463 1454 1444 1443 1449 1453 1457 1473 1478 1476 1485 1483 1456 1458 1462 1467 1470 1476 1480 1484 1488 1491 1495 1498 1501 1503 1505 1506 1508 1509 1510 1510 1511 1512 1512 1513 1513 1513 1513 1513 1513 1512
1454 1461 1473 1469 1458 1450 1451 1450 1451 1455 1464 1473 1481 1481 1458 1459 1462 1467 1471 1475 1480 1484 1488 1491 1494 1497 1499 1502 1504 1505 1507 1508 1509 1509 1510 1511 1511 1512 1512 1512 1512 1512 1511 1511
1458 1461 1469 1477 1467 1454 1455 1452 1451 1456 1469 1472 1470 1470 1463 1461 1464 1467 1471 1475 1480 1484 1488 1490 1493 1496 1498 1501 1503 1504 1506 1507 1507 1508 1509 1509 1510 1510 1510 1511 1511 1510 1510 1509
1457 1463 1461 1458 1452 1449 1450 1451 1451 1455 1457 1465 1463 1462 1460 1459 1462 1467 1471 1475 1479 1483 1487 1490 1493 1495 1497 1500 1502 1503 1504 1505 1506 1507 1507 1508 1508 1509 1509 1509 1509 1509 1508 1508
1458 1463 1463 1462 1452 1449 1450 1448 1448 1449 1449 1452 1455 1460 1456 1458 1463 1467 1471 1475 1479 1482 1486 1489 1492 1494 1496 1498 1500 1502 1503 1504 1504 1505 1506 1506 1507 1507 1507 1507 1507 1507 1506 1506
1460 1465 1471 1469 1457 1454 1459 1449 1448 1449 1446 1449 1458 1458 1456 1460 1464 1468 1471 1475 1479 1482 1485 1487 1490 1493 1495 1497 1498 1500 1501 1502 1503 1503 1504 1505 1505 1505 1505 1506 1506 1505 1505 1504
1461 1465 1467 1468 1468 1478 1456 1441 1442 1446 1447 1447 1451 1455 1456 1460 1464 1468 1471 1474 1478 1481 1484 1487 1489 1491 1493 1495 1497 1499 1500 1500 1501 1501 1502 1502 1503 1503 1503 1503 1503 1503 1503 1502
1454 1461 1468 1470 1472 1466 1452 1444 1445 1449 1453 1450 1452 1454 1458 1461 1465 1469 1471 1474 1477 1480 1483 1486 1488 1490 1492 1494 1495 1497 1498 1498 1499 1499 1499 1500 1500 1500 1500 1500 1500 1500 1500 1499
1451 1455 1466 1469 1475 1475 1458 1445 1444 1448 1459 1454 1455 1458 1460 1462 1467 1471 1472 1474 1477 1480 1482 1485 1487 1488 1490 1492 1494 1495 1496 1496 1497 1497 1497 1498 1498 1498 1498 1498 1497 1497 1497 1496
1455 1458 1463 1467 1470 1462 1452 1446 1448 1463 1466 1458 1459 1461 1464 1466 1469 1473 1473 1475 1477 1479 1482 1484 1486 1487 1489 1491 1492 1493 1494 1494 1495 1495 1496 1496 1495 1495 1495 1495 1495 1494 1494 1494
1456 1459 1462 1464 1470 1470 1454 1451 1458 1463 1461 1461 1463 1465 1467 1469 1471 1473 1474 1476 1478 1480 1482 1483 1485 1486 1488 1489 1490 1491 1492 1492 1493 1493 1493 1493 1493 1493 1493 1493 1492 1492 1491 1491
1450 1452 1455 1459 1464 1461 1459 1460 1462 1462 1463 1464 1466 1467 1469 1471 1472 1474 1475 1477 1479 1480 1482 1483 1484 1485 1486 1488 1489 1489 1490 1490 1490 1491 1491 1491 1491 1491 1491 1490 1490 1489 1489 1488
1449 1449 1453 1457 1458 1460 1462 1462 1463 1465 1465 1466 1468 1469 1470 1471 1473 1474 1476 1477 1479 1480 1481 1483 1484 1484 1485 1486 1487 1487 1487 1488 1488 1488 1488 1488 1488 1488 1488 1488 1487 1487 1486 1485
1453 1452 1455 1459 1460 1461 1463 1464 1465 1466 1467 1468 1469 1470 1471 1472 1473 1475 1476 1478 1479 1480 1481 1482 1483 1483 1484 1484 1485 1485 1485 1485 1486 1485 1486 1486 1486 1486 1485 1485 1485 1484 1483 1483
1455 1456 1458 1460 1462 1462 1464 1465 1466 1467 1468 1470 1470 1471 1472 1473 1474 1474 1476 1478 1479 1480 1481 1482 1482 1483 1483 1483 1483 1483 1483 1483 1484 1483 1483 1484 1484 1483 1483 1482 1482 1481 1481 1480